sat.trackr.live / text

‹ back to catalog

SHIYAN-29

NORAD 65486 · 2025-196A

PAYLOAD ACTIVE UNKNOWN

§ Identity

Operator
Country
PRC
Launch date
2025-09-05
Launch site
XICLF
Launch vehicle
Mass (kg)
RCS (m²)

Purposes: comms

External: N2YO · Heavens-Above · Gunter

§ Orbital elements

Epoch: 2026-05-23T14:33:06.561216Z

Period
1,436.25 min
Inclination
28.7957°
Eccentricity
0.0009888
Mean motion
1.00261227 rev/d
Perigee alt
35,747.9 km
Apogee alt
35,831.3 km
Semi-major
42,167.7 km
B*
0.0000e+0
RAAN
18.8473°
Arg perigee
173.7291°
Mean anomaly
1.8552°
Rev number
263

§ Raw data

SHIYAN-291 65486U 25196A   26143.60632594 -.00000282  00000+0  00000+0 0  99942 65486  28.7957  18.8473 0009888 173.7291   1.8552  1.00261227  2636

JSON: /api/v1/satellites/65486 · /tle

For live sub-satellite position, see the globe view (requires WebGL).

§ Visibility from observer

Set your observer location to see the next 7 days of passes ≥ 10°. The values pass through the URL so the page stays shareable.

No JS? Fill the form by hand. The geolocation button needs JavaScript.